Time,TemperatureF,DewpointF,PressureIn,WindDirection,WindDirectionDegrees,WindSpeedMPH,WindSpeedGustMPH,Humidity,HourlyPrecipIn,Conditions,Clouds,dailyrainin,SolarRadiationWatts/m^2,SoftwareType,DateUTC
2013-02-02 00:01:00,48.1,46.7,30.25,SSE,166,0.0,0.0,95,0.00,,,0.00,0.00,VWS V14.01,2013-02-02 08:01:00,
2013-02-02 00:06:00,48.3,46.9,30.25,SSE,166,0.0,0.0,95,0.00,,,0.00,0.00,VWS V14.01,2013-02-02 08:06:00,
2013-02-02 00:11:00,48.4,47.0,30.25,SSE,167,0.0,1.0,95,0.00,,,0.00,0.00,VWS V14.01,2013-02-02 08:11:00,
2013-02-02 00:16:00,48.6,47.2,30.25,SW,235,0.0,2.0,95,0.00,,,0.00,0.00,VWS V14.01,2013-02-02 08:16:00,
2013-02-02 00:21:00,48.7,47.3,30.25,SW,235,0.0,1.0,95,0.00,,,0.00,0.00,VWS V14.01,2013-02-02 08:21:00,
2013-02-02 00:26:00,48.8,47.4,30.25,SW,235,0.0,1.0,95,0.00,,,0.00,0.00,VWS V14.01,2013-02-02 08:26:00,
2013-02-02 00:31:00,48.8,47.4,30.25,SW,235,0.0,0.0,95,0.00,,,0.00,0.00,VWS V14.01,2013-02-02 08:31:00,
2013-02-02 00:36:00,48.9,47.5,30.25,SW,235,0.0,0.0,95,0.00,,,0.00,0.00,VWS V14.01,2013-02-02 08:36:00,
2013-02-02 00:43:00,48.9,47.5,30.25,SW,235,0.0,0.0,95,0.00,,,0.00,0.00,VWS V14.01,2013-02-02 08:43:00,
2013-02-02 00:48:00,48.9,47.5,30.25,SW,235,0.0,0.0,95,0.00,,,0.00,0.00,VWS V14.01,2013-02-02 08:48:00,
2013-02-02 01:00:00,49.0,47.6,30.25,SW,235,0.0,1.0,95,0.00,,,0.00,0.00,VWS V14.01,2013-02-02 09:00:00,
2013-02-02 01:06:00,49.0,47.6,30.25,SW,234,0.0,0.0,95,0.00,,,0.00,0.00,VWS V14.01,2013-02-02 09:06:00,
2013-02-02 01:11:00,49.0,47.6,30.25,SW,234,0.0,1.0,95,0.00,,,0.00,0.00,VWS V14.01,2013-02-02 09:11:00,
2013-02-02 01:16:00,48.9,47.5,30.25,SW,234,1.0,1.0,95,0.00,,,0.00,0.00,VWS V14.01,2013-02-02 09:16:00,
2013-02-02 01:21:00,48.8,47.4,30.26,SW,230,1.0,2.0,95,0.00,,,0.00,0.00,VWS V14.01,2013-02-02 09:21:00,
2013-02-02 01:26:00,48.8,47.4,30.26,SE,141,1.0,3.0,95,0.00,,,0.00,0.00,VWS V14.01,2013-02-02 09:26:00,
2013-02-02 01:31:00,48.8,47.4,30.26,SE,141,0.0,0.0,95,0.00,,,0.00,0.00,VWS V14.01,2013-02-02 09:31:00,
2013-02-02 01:36:00,48.8,47.4,30.26,SE,141,0.0,0.0,95,0.00,,,0.00,0.00,VWS V14.01,2013-02-02 09:36:00,
2013-02-02 01:42:00,48.8,47.4,30.26,SE,141,0.0,0.0,95,0.00,,,0.00,0.00,VWS V14.01,2013-02-02 09:42:00,
2013-02-02 01:47:00,48.7,47.3,30.26,SE,141,0.0,0.0,95,0.00,,,0.00,0.00,VWS V14.01,2013-02-02 09:47:00,
2013-02-02 01:52:00,48.7,47.3,30.26,SE,141,0.0,0.0,95,0.00,,,0.00,0.00,VWS V14.01,2013-02-02 09:52:00,
2013-02-02 01:57:00,48.7,47.3,30.26,SE,141,0.0,0.0,95,0.00,,,0.00,0.00,VWS V14.01,2013-02-02 09:57:00,
2013-02-02 02:02:00,48.8,47.4,30.26,SE,141,0.0,0.0,95,0.00,,,0.00,0.00,VWS V14.01,2013-02-02 10:02:00,
2013-02-02 02:07:00,48.8,47.4,30.27,SE,141,0.0,0.0,95,0.00,,,0.00,0.00,VWS V14.01,2013-02-02 10:07:00,
2013-02-02 02:12:00,48.8,47.4,30.27,SE,141,0.0,0.0,95,0.00,,,0.00,0.00,VWS V14.01,2013-02-02 10:12:00,
2013-02-02 02:17:00,48.9,47.5,30.27,SE,141,0.0,0.0,95,0.00,,,0.00,0.00,VWS V14.01,2013-02-02 10:17:00,
2013-02-02 02:22:00,48.9,47.5,30.27,SE,141,0.0,0.0,95,0.00,,,0.00,0.00,VWS V14.01,2013-02-02 10:22:00,
2013-02-02 02:27:00,48.9,47.5,30.26,SE,141,0.0,0.0,95,0.00,,,0.00,0.00,VWS V14.01,2013-02-02 10:27:00,
2013-02-02 02:32:00,49.0,47.6,30.26,SE,141,0.0,1.0,95,0.00,,,0.00,0.00,VWS V14.01,2013-02-02 10:32:00,
2013-02-02 02:37:00,49.0,47.3,30.26,SE,142,0.0,2.0,94,0.00,,,0.00,0.00,VWS V14.01,2013-02-02 10:37:00,
2013-02-02 02:42:00,49.0,47.3,30.26,SE,141,0.0,1.0,94,0.00,,,0.00,0.00,VWS V14.01,2013-02-02 10:42:00,
2013-02-02 02:48:00,49.0,47.3,30.26,SE,141,0.0,1.0,94,0.00,,,0.00,0.00,VWS V14.01,2013-02-02 10:48:00,
2013-02-02 02:53:00,49.0,47.3,30.26,SE,141,0.0,1.0,94,0.00,,,0.00,0.00,VWS V14.01,2013-02-02 10:53:00,
2013-02-02 02:58:00,49.0,47.3,30.26,SE,141,0.0,1.0,94,0.00,,,0.00,0.00,VWS V14.01,2013-02-02 10:58:00,
2013-02-02 03:03:00,49.0,47.3,30.25,SE,141,0.0,0.0,94,0.00,,,0.00,0.00,VWS V14.01,2013-02-02 11:03:00,
2013-02-02 03:08:00,49.1,47.5,30.25,SE,141,0.0,1.0,94,0.00,,,0.00,0.00,VWS V14.01,2013-02-02 11:08:00,
2013-02-02 03:13:00,49.1,47.5,30.25,SE,141,0.0,0.0,94,0.00,,,0.00,0.00,VWS V14.01,2013-02-02 11:13:00,
2013-02-02 03:19:00,49.1,47.5,30.25,SE,142,0.0,1.0,94,0.00,,,0.00,0.00,VWS V14.01,2013-02-02 11:19:00,
2013-02-02 03:26:00,49.1,47.5,30.25,SE,141,0.0,1.0,94,0.00,,,0.00,0.00,VWS V14.01,2013-02-02 11:26:00,
2013-02-02 03:31:00,49.2,47.5,30.25,ESE,122,0.0,1.0,94,0.00,,,0.00,0.00,VWS V14.01,2013-02-02 11:31:00,
2013-02-02 03:40:00,49.2,47.8,30.25,ENE,69,0.0,3.0,95,0.00,,,0.00,0.00,VWS V14.01,2013-02-02 11:40:00,
2013-02-02 03:45:00,49.2,47.5,30.25,ENE,69,0.0,1.0,94,0.00,,,0.00,0.00,VWS V14.01,2013-02-02 11:45:00,
2013-02-02 03:50:00,49.2,47.5,30.24,ENE,66,0.0,0.0,94,0.00,,,0.00,0.00,VWS V14.01,2013-02-02 11:50:00,
2013-02-02 03:56:00,49.2,47.5,30.24,ENE,58,4.0,4.0,94,0.00,,,0.00,0.00,VWS V14.01,2013-02-02 11:56:00,
2013-02-02 04:01:00,49.2,47.5,30.24,ENE,60,0.0,2.0,94,0.00,,,0.00,0.00,VWS V14.01,2013-02-02 12:01:00,
2013-02-02 04:07:00,49.2,47.5,30.24,ENE,60,0.0,4.0,94,0.00,,,0.00,0.00,VWS V14.01,2013-02-02 12:07:00,
2013-02-02 04:13:00,49.1,47.5,30.24,NE,52,2.0,2.0,94,0.00,,,0.00,0.00,VWS V14.01,2013-02-02 12:13:00,
2013-02-02 04:18:00,49.1,47.5,30.24,ENE,59,0.0,2.0,94,0.00,,,0.00,0.00,VWS V14.01,2013-02-02 12:18:00,
2013-02-02 04:23:00,49.1,47.5,30.24,East,79,1.0,3.0,94,0.00,,,0.00,0.00,VWS V14.01,2013-02-02 12:23:00,
2013-02-02 04:28:00,49.1,47.5,30.24,NE,50,0.0,4.0,94,0.00,,,0.00,0.00,VWS V14.01,2013-02-02 12:28:00,
2013-02-02 04:33:00,49.2,47.5,30.24,ENE,58,1.0,4.0,94,0.00,,,0.00,0.00,VWS V14.01,2013-02-02 12:33:00,
2013-02-02 04:38:00,49.1,47.5,30.24,ENE,70,1.0,4.0,94,0.00,,,0.00,0.00,VWS V14.01,2013-02-02 12:38:00,
2013-02-02 04:43:00,49.0,47.3,30.24,ENE,69,0.0,3.0,94,0.00,,,0.00,0.00,VWS V14.01,2013-02-02 12:43:00,
2013-02-02 04:48:00,49.0,47.3,30.24,ENE,69,0.0,3.0,94,0.00,,,0.00,0.00,VWS V14.01,2013-02-02 12:48:00,
2013-02-02 04:53:00,48.9,47.2,30.24,ENE,69,0.0,1.0,94,0.00,,,0.00,0.00,VWS V14.01,2013-02-02 12:53:00,
2013-02-02 04:58:00,48.9,47.2,30.24,ENE,69,0.0,1.0,94,0.00,,,0.00,0.00,VWS V14.01,2013-02-02 12:58:00,
2013-02-02 05:03:00,48.9,47.2,30.24,ENE,67,2.0,3.0,94,0.00,,,0.00,0.00,VWS V14.01,2013-02-02 13:03:00,
2013-02-02 05:08:00,48.7,47.0,30.24,SSE,160,1.0,4.0,94,0.00,,,0.00,0.00,VWS V14.01,2013-02-02 13:08:00,
2013-02-02 05:13:00,48.7,47.0,30.24,NE,50,1.0,3.0,94,0.00,,,0.00,0.00,VWS V14.01,2013-02-02 13:13:00,
2013-02-02 05:18:00,48.6,47.0,30.24,NE,56,0.0,4.0,94,0.00,,,0.00,0.00,VWS V14.01,2013-02-02 13:18:00,
2013-02-02 05:23:00,48.6,47.0,30.25,NE,52,2.0,4.0,94,0.00,,,0.00,0.00,VWS V14.01,2013-02-02 13:23:00,
2013-02-02 05:28:00,48.5,46.9,30.24,ENE,58,0.0,4.0,94,0.00,,,0.00,0.00,VWS V14.01,2013-02-02 13:28:00,
2013-02-02 05:33:00,48.4,46.8,30.25,ENE,71,0.0,1.0,94,0.00,,,0.00,0.00,VWS V14.01,2013-02-02 13:33:00,
2013-02-02 05:38:00,48.3,46.7,30.25,NE,56,1.0,3.0,94,0.00,,,0.00,0.00,VWS V14.01,2013-02-02 13:38:00,
2013-02-02 05:43:00,48.2,46.8,30.25,NE,41,0.0,1.0,95,0.00,,,0.00,0.00,VWS V14.01,2013-02-02 13:43:00,
2013-02-02 05:48:00,48.2,46.8,30.25,NNW,333,0.0,2.0,95,0.00,,,0.00,0.00,VWS V14.01,2013-02-02 13:48:00,
2013-02-02 05:53:00,48.2,46.8,30.25,NNW,333,0.0,1.0,95,0.00,,,0.00,0.00,VWS V14.01,2013-02-02 13:53:00,
2013-02-02 05:58:00,48.2,46.8,30.25,ESE,113,1.0,3.0,95,0.00,,,0.00,0.00,VWS V14.01,2013-02-02 13:58:00,
2013-02-02 06:03:00,48.2,46.8,30.25,ESE,113,0.0,1.0,95,0.00,,,0.00,0.00,VWS V14.01,2013-02-02 14:03:00,
2013-02-02 06:09:00,48.2,46.8,30.25,ESE,112,0.0,2.0,95,0.00,,,0.00,0.00,VWS V14.01,2013-02-02 14:09:00,
2013-02-02 06:14:00,48.2,46.8,30.25,ESE,109,0.0,1.0,95,0.00,,,0.00,0.00,VWS V14.01,2013-02-02 14:14:00,
2013-02-02 06:19:00,48.2,46.8,30.26,ESE,114,0.0,1.0,95,0.00,,,0.00,0.00,VWS V14.01,2013-02-02 14:19:00,
2013-02-02 06:24:00,48.2,46.8,30.26,ENE,75,1.0,3.0,95,0.00,,,0.00,0.00,VWS V14.01,2013-02-02 14:24:00,
2013-02-02 06:29:00,48.2,47.9,30.26,ENE,77,0.0,3.0,99,0.00,,,0.00,0.00,VWS V14.01,2013-02-02 14:29:00,
2013-02-02 06:35:00,48.2,46.8,30.26,ENE,77,0.0,2.0,95,0.00,,,0.00,0.00,VWS V14.01,2013-02-02 14:35:00,
2013-02-02 06:40:00,48.2,48.2,30.27,East,96,2.0,2.0,100,0.00,,,0.00,0.00,VWS V14.01,2013-02-02 14:40:00,
2013-02-02 06:45:00,48.2,46.8,30.27,ESE,121,1.0,2.0,95,0.00,,,0.00,0.00,VWS V14.01,2013-02-02 14:45:00,
2013-02-02 06:50:00,48.3,46.9,30.27,SE,129,0.0,1.0,95,0.00,,,0.00,0.00,VWS V14.01,2013-02-02 14:50:00,
2013-02-02 06:56:00,48.3,46.9,30.27,SE,140,2.0,3.0,95,0.00,,,0.00,0.00,VWS V14.01,2013-02-02 14:56:00,
2013-02-02 07:01:00,48.3,46.9,30.27,ENE,66,0.0,1.0,95,0.00,,,0.00,0.00,VWS V14.01,2013-02-02 15:01:00,
2013-02-02 07:06:00,48.2,48.2,30.27,NE,38,0.0,2.0,100,0.00,,,0.00,0.00,VWS V14.01,2013-02-02 15:06:00,
2013-02-02 07:11:00,48.1,46.7,30.27,NE,35,0.0,3.0,95,0.00,,,0.00,0.00,VWS V14.01,2013-02-02 15:11:00,
2013-02-02 07:16:00,48.1,46.7,30.27,ENE,76,0.0,3.0,95,0.00,,,0.00,0.00,VWS V14.01,2013-02-02 15:16:00,
2013-02-02 07:21:00,48.1,46.7,30.27,ENE,63,0.0,1.0,95,0.00,,,0.00,0.00,VWS V14.01,2013-02-02 15:21:00,
2013-02-02 07:26:00,48.1,46.7,30.27,ENE,64,0.0,1.0,95,0.00,,,0.00,0.00,VWS V14.01,2013-02-02 15:26:00,
2013-02-02 07:32:00,48.1,46.7,30.28,NE,49,0.0,1.0,95,0.00,,,0.00,5.00,VWS V14.01,2013-02-02 15:32:00,
2013-02-02 07:37:00,48.1,46.7,30.27,SE,131,0.0,2.0,95,0.00,,,0.00,11.00,VWS V14.01,2013-02-02 15:37:00,
2013-02-02 07:42:00,48.1,46.7,30.28,ESE,115,0.0,1.0,95,0.00,,,0.00,11.00,VWS V14.01,2013-02-02 15:42:00,
2013-02-02 07:47:00,48.1,46.7,30.28,ESE,115,0.0,1.0,95,0.00,,,0.00,14.00,VWS V14.01,2013-02-02 15:47:00,
2013-02-02 07:52:00,48.0,46.6,30.28,NE,41,0.0,1.0,95,0.00,,,0.00,18.00,VWS V14.01,2013-02-02 15:52:00,
2013-02-02 07:57:00,48.0,46.6,30.28,SSE,150,0.0,2.0,95,0.00,,,0.00,16.00,VWS V14.01,2013-02-02 15:57:00,
2013-02-02 08:02:00,48.0,46.9,30.28,NE,56,0.0,3.0,96,0.00,,,0.00,21.00,VWS V14.01,2013-02-02 16:02:00,
2013-02-02 08:08:00,48.0,46.9,30.29,ESE,114,1.0,3.0,96,0.00,,,0.00,21.00,VWS V14.01,2013-02-02 16:08:00,
2013-02-02 08:13:00,48.0,46.9,30.29,ESE,110,0.0,2.0,96,0.00,,,0.00,21.00,VWS V14.01,2013-02-02 16:13:00,
2013-02-02 08:18:00,48.0,46.9,30.29,East,79,0.0,2.0,96,0.00,,,0.00,23.00,VWS V14.01,2013-02-02 16:18:00,
2013-02-02 08:24:00,47.9,46.8,30.29,NE,52,0.0,1.0,96,0.00,,,0.00,25.00,VWS V14.01,2013-02-02 16:24:00,
2013-02-02 08:29:00,47.9,46.8,30.29,ENE,62,2.0,5.0,96,0.00,,,0.00,28.00,VWS V14.01,2013-02-02 16:29:00,
2013-02-02 08:38:00,48.1,47.0,30.29,SE,140,0.0,3.0,96,0.00,,,0.00,32.00,VWS V14.01,2013-02-02 16:38:00,
2013-02-02 08:43:00,48.1,47.0,30.30,ENE,74,1.0,2.0,96,0.00,,,0.00,30.00,VWS V14.01,2013-02-02 16:43:00,
2013-02-02 08:48:00,48.1,47.0,30.30,ESE,113,0.0,2.0,96,0.00,,,0.00,30.00,VWS V14.01,2013-02-02 16:48:00,
2013-02-02 08:53:00,48.1,47.0,30.30,SE,131,0.0,2.0,96,0.00,,,0.00,30.00,VWS V14.01,2013-02-02 16:53:00,
2013-02-02 09:00:00,48.2,47.1,30.30,East,81,0.0,2.0,96,0.00,,,0.00,33.00,VWS V14.01,2013-02-02 17:00:00,
2013-02-02 09:05:00,48.2,47.1,30.30,SE,128,1.0,3.0,96,0.00,,,0.00,42.00,VWS V14.01,2013-02-02 17:05:00,
2013-02-02 09:10:00,48.2,47.1,30.30,SE,134,0.0,1.0,96,0.00,,,0.00,51.00,VWS V14.01,2013-02-02 17:10:00,
2013-02-02 09:15:00,48.2,47.1,30.30,ESE,110,2.0,4.0,96,0.00,,,0.00,63.00,VWS V14.01,2013-02-02 17:15:00,
2013-02-02 09:21:00,48.2,47.1,30.30,ESE,103,1.0,1.0,96,0.00,,,0.00,60.00,VWS V14.01,2013-02-02 17:21:00,
2013-02-02 09:38:00,48.6,47.5,30.29,SE,125,1.0,4.0,96,0.00,,,0.00,88.00,VWS V14.01,2013-02-02 17:38:00,
2013-02-02 09:43:00,48.6,47.5,30.29,East,84,0.0,3.0,96,0.00,,,0.00,111.00,VWS V14.01,2013-02-02 17:43:00,
2013-02-02 09:48:00,48.7,47.6,30.29,NE,50,0.0,3.0,96,0.00,,,0.00,102.00,VWS V14.01,2013-02-02 17:48:00,
2013-02-02 09:55:00,48.8,47.7,30.29,SE,125,1.0,2.0,96,0.00,,,0.00,97.00,VWS V14.01,2013-02-02 17:55:00,
2013-02-02 10:19:00,49.5,48.4,30.29,East,101,2.0,2.0,96,0.00,,,0.00,292.00,VWS V14.01,2013-02-02 18:19:00,
2013-02-02 10:24:00,49.7,48.6,30.29,ENE,65,1.0,2.0,96,0.00,,,0.00,244.00,VWS V14.01,2013-02-02 18:24:00,
2013-02-02 10:29:00,49.9,48.8,30.29,ENE,63,0.0,2.0,96,0.00,,,0.00,297.00,VWS V14.01,2013-02-02 18:29:00,
2013-02-02 10:34:00,50.2,48.8,30.29,SE,126,2.0,4.0,95,0.00,,,0.00,360.00,VWS V14.01,2013-02-02 18:34:00,
2013-02-02 10:39:00,50.4,49.0,30.29,East,86,3.0,4.0,95,0.00,,,0.00,264.00,VWS V14.01,2013-02-02 18:39:00,
2013-02-02 10:44:00,50.4,49.0,30.30,ESE,121,1.0,4.0,95,0.00,,,0.00,241.00,VWS V14.01,2013-02-02 18:44:00,
2013-02-02 10:49:00,50.5,49.1,30.30,East,101,2.0,4.0,95,0.00,,,0.00,236.00,VWS V14.01,2013-02-02 18:49:00,
2013-02-02 10:54:00,50.6,49.2,30.30,ENE,71,0.0,2.0,95,0.00,,,0.00,285.00,VWS V14.01,2013-02-02 18:54:00,
2013-02-02 10:59:00,50.6,48.9,30.30,ENE,60,3.0,4.0,94,0.00,,,0.00,258.00,VWS V14.01,2013-02-02 18:59:00,
2013-02-02 11:04:00,50.5,48.8,30.30,ENE,73,0.0,4.0,94,0.00,,,0.00,323.00,VWS V14.01,2013-02-02 19:04:00,
2013-02-02 11:09:00,50.7,49.0,30.30,ENE,62,0.0,4.0,94,0.00,,,0.00,378.00,VWS V14.01,2013-02-02 19:09:00,
2013-02-02 11:14:00,51.0,49.3,30.30,NNW,329,0.0,3.0,94,0.00,,,0.00,283.00,VWS V14.01,2013-02-02 19:14:00,
2013-02-02 11:19:00,50.9,49.0,30.30,North,349,0.0,4.0,93,0.00,,,0.00,264.00,VWS V14.01,2013-02-02 19:19:00,
2013-02-02 11:24:00,51.2,49.2,30.30,NNE,25,0.0,2.0,93,0.00,,,0.00,271.00,VWS V14.01,2013-02-02 19:24:00,
2013-02-02 11:30:00,51.2,49.2,30.30,NNW,345,0.0,3.0,93,0.00,,,0.00,195.00,VWS V14.01,2013-02-02 19:30:00,
2013-02-02 11:35:00,51.3,49.3,30.29,NNW,343,0.0,2.0,93,0.00,,,0.00,162.00,VWS V14.01,2013-02-02 19:35:00,
2013-02-02 11:40:00,51.5,49.3,30.29,NNW,345,0.0,3.0,92,0.00,,,0.00,144.00,VWS V14.01,2013-02-02 19:40:00,
2013-02-02 11:45:00,51.5,49.3,30.29,NNW,335,1.0,2.0,92,0.00,,,0.00,142.00,VWS V14.01,2013-02-02 19:45:00,
2013-02-02 11:50:00,51.5,49.3,30.29,WSW,247,0.0,3.0,92,0.00,,,0.00,130.00,VWS V14.01,2013-02-02 19:50:00,
2013-02-02 11:57:00,51.6,49.4,30.29,NNW,329,2.0,7.0,92,0.00,,,0.00,163.00,VWS V14.01,2013-02-02 19:57:00,
2013-02-02 12:02:00,51.8,49.3,30.29,West,270,3.0,7.0,91,0.00,,,0.00,135.00,VWS V14.01,2013-02-02 20:02:00,
2013-02-02 12:07:00,51.8,49.3,30.29,West,281,1.0,7.0,91,0.00,,,0.00,146.00,VWS V14.01,2013-02-02 20:07:00,
2013-02-02 12:12:00,51.7,49.2,30.29,WNW,293,5.0,6.0,91,0.00,,,0.00,149.00,VWS V14.01,2013-02-02 20:12:00,
2013-02-02 12:17:00,51.8,49.3,30.29,WSW,256,0.0,6.0,91,0.00,,,0.00,149.00,VWS V14.01,2013-02-02 20:17:00,
2013-02-02 12:22:00,51.8,49.3,30.29,WNW,291,4.0,4.0,91,0.00,,,0.00,144.00,VWS V14.01,2013-02-02 20:22:00,
2013-02-02 12:28:00,51.9,49.4,30.28,WNW,295,1.0,4.0,91,0.00,,,0.00,193.00,VWS V14.01,2013-02-02 20:28:00,
2013-02-02 12:33:00,52.1,49.6,30.28,NNW,348,2.0,4.0,91,0.00,,,0.00,130.00,VWS V14.01,2013-02-02 20:33:00,
2013-02-02 12:38:00,52.1,49.6,30.28,WNW,291,4.0,4.0,91,0.00,,,0.00,123.00,VWS V14.01,2013-02-02 20:38:00,
2013-02-02 12:43:00,52.0,49.5,30.27,WNW,290,1.0,3.0,91,0.00,,,0.00,114.00,VWS V14.01,2013-02-02 20:43:00,
2013-02-02 12:48:00,52.0,49.2,30.27,NNW,344,1.0,4.0,90,0.00,,,0.00,113.00,VWS V14.01,2013-02-02 20:48:00,
2013-02-02 12:53:00,52.1,49.6,30.26,NW,311,0.0,1.0,91,0.00,,,0.00,121.00,VWS V14.01,2013-02-02 20:53:00,
2013-02-02 12:58:00,52.2,49.7,30.26,West,281,2.0,4.0,91,0.00,,,0.00,118.00,VWS V14.01,2013-02-02 20:58:00,
2013-02-02 13:03:00,52.2,49.4,30.26,West,263,0.0,3.0,90,0.00,,,0.00,144.00,VWS V14.01,2013-02-02 21:03:00,
2013-02-02 13:08:00,52.3,49.5,30.26,North,6,2.0,4.0,90,0.00,,,0.00,151.00,VWS V14.01,2013-02-02 21:08:00,
2013-02-02 13:13:00,52.3,49.5,30.26,North,356,0.0,4.0,90,0.00,,,0.00,149.00,VWS V14.01,2013-02-02 21:13:00,
2013-02-02 13:18:00,52.4,49.6,30.26,North,360,2.0,4.0,90,0.00,,,0.00,151.00,VWS V14.01,2013-02-02 21:18:00,
2013-02-02 13:23:00,52.4,49.6,30.25,NNW,333,0.0,3.0,90,0.00,,,0.00,151.00,VWS V14.01,2013-02-02 21:23:00,
2013-02-02 13:28:00,52.4,49.6,30.25,North,349,2.0,4.0,90,0.00,,,0.00,178.00,VWS V14.01,2013-02-02 21:28:00,
2013-02-02 13:33:00,52.5,49.7,30.25,NW,320,1.0,5.0,90,0.00,,,0.00,181.00,VWS V14.01,2013-02-02 21:33:00,
2013-02-02 13:38:00,52.3,49.2,30.25,WNW,300,2.0,5.0,89,0.00,,,0.00,167.00,VWS V14.01,2013-02-02 21:38:00,
2013-02-02 13:43:00,52.4,49.6,30.25,WNW,291,3.0,5.0,90,0.00,,,0.00,211.00,VWS V14.01,2013-02-02 21:43:00,
2013-02-02 13:48:00,52.3,49.5,30.25,WNW,284,1.0,5.0,90,0.00,,,0.00,236.00,VWS V14.01,2013-02-02 21:48:00,
2013-02-02 13:53:00,52.5,49.7,30.25,NW,322,2.0,4.0,90,0.00,,,0.00,207.00,VWS V14.01,2013-02-02 21:53:00,
2013-02-02 14:00:00,52.8,49.7,30.24,NNW,329,1.0,3.0,89,0.00,,,0.00,209.00,VWS V14.01,2013-02-02 22:00:00,
2013-02-02 14:06:00,52.8,49.7,30.24,NW,306,1.0,6.0,89,0.00,,,0.00,211.00,VWS V14.01,2013-02-02 22:06:00,
2013-02-02 14:11:00,52.8,49.7,30.24,North,356,2.0,2.0,89,0.00,,,0.00,237.00,VWS V14.01,2013-02-02 22:11:00,
2013-02-02 14:16:00,53.0,49.5,30.24,NNW,341,0.0,3.0,88,0.00,,,0.00,230.00,VWS V14.01,2013-02-02 22:16:00,
2013-02-02 14:21:00,53.1,49.7,30.24,NNW,335,0.0,3.0,88,0.00,,,0.00,227.00,VWS V14.01,2013-02-02 22:21:00,
2013-02-02 14:26:00,53.3,49.8,30.24,North,358,2.0,4.0,88,0.00,,,0.00,264.00,VWS V14.01,2013-02-02 22:26:00,
2013-02-02 14:31:00,53.4,49.9,30.24,NW,304,0.0,1.0,88,0.00,,,0.00,207.00,VWS V14.01,2013-02-02 22:31:00,
2013-02-02 14:36:00,53.6,49.8,30.24,NNW,335,2.0,3.0,87,0.00,,,0.00,200.00,VWS V14.01,2013-02-02 22:36:00,
2013-02-02 14:41:00,53.5,49.7,30.24,NNW,347,1.0,2.0,87,0.00,,,0.00,195.00,VWS V14.01,2013-02-02 22:41:00,
2013-02-02 14:46:00,53.5,50.0,30.24,NNW,343,0.0,5.0,88,0.00,,,0.00,181.00,VWS V14.01,2013-02-02 22:46:00,
2013-02-02 14:51:00,53.6,49.8,30.25,NW,304,2.0,4.0,87,0.00,,,0.00,160.00,VWS V14.01,2013-02-02 22:51:00,
2013-02-02 14:56:00,53.5,50.0,30.24,WNW,286,5.0,5.0,88,0.00,,,0.00,172.00,VWS V14.01,2013-02-02 22:56:00,
2013-02-02 15:01:00,53.3,49.8,30.24,West,269,4.0,4.0,88,0.00,,,0.00,171.00,VWS V14.01,2013-02-02 23:01:00,
2013-02-02 15:06:00,53.2,49.7,30.24,West,267,2.0,6.0,88,0.00,,,0.00,158.00,VWS V14.01,2013-02-02 23:06:00,
2013-02-02 15:18:00,53.2,49.7,30.25,NNW,341,0.0,5.0,88,0.00,,,0.00,148.00,VWS V14.01,2013-02-02 23:18:00,
2013-02-02 15:23:00,53.3,49.8,30.25,North,359,3.0,4.0,88,0.00,,,0.00,139.00,VWS V14.01,2013-02-02 23:23:00,
2013-02-02 15:28:00,53.2,49.7,30.25,NW,318,0.0,4.0,88,0.00,,,0.00,120.00,VWS V14.01,2013-02-02 23:28:00,
2013-02-02 15:33:00,53.1,50.0,30.25,NW,320,1.0,4.0,89,0.00,,,0.00,125.00,VWS V14.01,2013-02-02 23:33:00,
2013-02-02 15:38:00,53.0,49.8,30.25,NW,324,0.0,5.0,89,0.00,,,0.00,134.00,VWS V14.01,2013-02-02 23:38:00,
2013-02-02 15:43:00,53.1,50.0,30.25,WNW,286,2.0,5.0,89,0.00,,,0.00,160.00,VWS V14.01,2013-02-02 23:43:00,
2013-02-02 15:48:00,53.0,49.8,30.25,WNW,286,1.0,6.0,89,0.00,,,0.00,204.00,VWS V14.01,2013-02-02 23:48:00,
2013-02-02 15:53:00,53.1,50.0,30.25,WNW,295,5.0,6.0,89,0.00,,,0.00,230.00,VWS V14.01,2013-02-02 23:53:00,
2013-02-02 15:58:00,53.2,50.0,30.25,WNW,293,4.0,6.0,89,0.00,,,0.00,172.00,VWS V14.01,2013-02-02 23:58:00,
2013-02-02 16:03:00,53.2,50.0,30.25,NNW,335,1.0,5.0,89,0.00,,,0.00,134.00,VWS V14.01,2013-02-03 00:03:00,
2013-02-02 16:08:00,53.4,50.2,30.25,West,281,2.0,5.0,89,0.00,,,0.00,172.00,VWS V14.01,2013-02-03 00:08:00,
2013-02-02 16:13:00,53.3,50.2,30.25,NW,309,0.0,2.0,89,0.00,,,0.00,183.00,VWS V14.01,2013-02-03 00:13:00,
2013-02-02 16:18:00,53.5,50.3,30.25,NNW,337,1.0,3.0,89,0.00,,,0.00,172.00,VWS V14.01,2013-02-03 00:18:00,
2013-02-02 16:23:00,53.6,50.4,30.24,NNW,337,1.0,1.0,89,0.00,,,0.00,174.00,VWS V14.01,2013-02-03 00:23:00,
2013-02-02 16:28:00,53.6,50.4,30.24,NNW,333,0.0,2.0,89,0.00,,,0.00,127.00,VWS V14.01,2013-02-03 00:28:00,
2013-02-02 16:33:00,53.6,50.1,30.25,NW,310,1.0,3.0,88,0.00,,,0.00,95.00,VWS V14.01,2013-02-03 00:33:00,
2013-02-02 16:38:00,53.4,50.2,30.24,NW,324,0.0,3.0,89,0.00,,,0.00,97.00,VWS V14.01,2013-02-03 00:38:00,
2013-02-02 16:43:00,53.5,50.3,30.24,WNW,303,2.0,2.0,89,0.00,,,0.00,105.00,VWS V14.01,2013-02-03 00:43:00,
2013-02-02 16:48:00,53.4,50.2,30.24,North,6,1.0,2.0,89,0.00,,,0.00,56.00,VWS V14.01,2013-02-03 00:48:00,
2013-02-02 16:53:00,53.2,50.0,30.24,NW,312,1.0,2.0,89,0.00,,,0.00,63.00,VWS V14.01,2013-02-03 00:53:00,
2013-02-02 16:58:00,53.0,49.8,30.24,NW,320,0.0,3.0,89,0.00,,,0.00,63.00,VWS V14.01,2013-02-03 00:58:00,
2013-02-02 17:03:00,53.0,49.8,30.24,WNW,297,0.0,4.0,89,0.00,,,0.00,54.00,VWS V14.01,2013-02-03 01:03:00,
2013-02-02 17:08:00,52.9,50.0,30.24,WNW,300,0.0,4.0,90,0.00,,,0.00,46.00,VWS V14.01,2013-02-03 01:08:00,
2013-02-02 17:13:00,52.8,50.0,30.24,NW,304,0.0,1.0,90,0.00,,,0.00,42.00,VWS V14.01,2013-02-03 01:13:00,
2013-02-02 17:18:00,52.8,50.0,30.24,NW,305,0.0,1.0,90,0.00,,,0.00,33.00,VWS V14.01,2013-02-03 01:18:00,
2013-02-02 17:23:00,52.7,49.8,30.24,NW,304,0.0,1.0,90,0.00,,,0.00,16.00,VWS V14.01,2013-02-03 01:23:00,
2013-02-02 17:28:00,52.6,49.8,30.24,NW,305,0.0,1.0,90,0.00,,,0.00,11.00,VWS V14.01,2013-02-03 01:28:00,
2013-02-02 17:33:00,52.6,49.8,30.24,NW,304,0.0,2.0,90,0.00,,,0.00,7.00,VWS V14.01,2013-02-03 01:33:00,
2013-02-02 17:38:00,52.5,50.0,30.24,NW,304,0.0,2.0,91,0.00,,,0.00,0.00,VWS V14.01,2013-02-03 01:38:00,
2013-02-02 17:43:00,52.3,49.8,30.23,NW,304,0.0,1.0,91,0.00,,,0.00,0.00,VWS V14.01,2013-02-03 01:43:00,
2013-02-02 17:48:00,52.2,49.7,30.23,WNW,294,0.0,4.0,91,0.00,,,0.00,0.00,VWS V14.01,2013-02-03 01:48:00,
2013-02-02 17:53:00,52.1,49.6,30.23,NW,306,0.0,1.0,91,0.00,,,0.00,0.00,VWS V14.01,2013-02-03 01:53:00,
2013-02-02 17:58:00,51.9,49.4,30.23,NW,304,1.0,3.0,91,0.00,,,0.00,0.00,VWS V14.01,2013-02-03 01:58:00,
2013-02-02 18:03:00,51.9,49.7,30.23,NW,305,1.0,2.0,92,0.00,,,0.00,0.00,VWS V14.01,2013-02-03 02:03:00,
2013-02-02 18:09:00,51.8,49.5,30.23,NW,304,0.0,2.0,92,0.00,,,0.00,0.00,VWS V14.01,2013-02-03 02:09:00,
2013-02-02 18:14:00,51.7,49.5,30.24,NW,304,0.0,1.0,92,0.00,,,0.00,0.00,VWS V14.01,2013-02-03 02:14:00,
2013-02-02 18:19:00,51.7,49.5,30.24,NW,304,0.0,1.0,92,0.00,,,0.00,0.00,VWS V14.01,2013-02-03 02:19:00,
2013-02-02 18:24:00,51.6,49.4,30.24,NW,304,0.0,1.0,92,0.00,,,0.00,0.00,VWS V14.01,2013-02-03 02:24:00,
2013-02-02 18:29:00,51.5,49.3,30.24,NW,304,0.0,1.0,92,0.00,,,0.00,0.00,VWS V14.01,2013-02-03 02:29:00,
2013-02-02 18:34:00,51.4,49.2,30.24,NW,304,0.0,0.0,92,0.00,,,0.00,0.00,VWS V14.01,2013-02-03 02:34:00,
2013-02-02 18:39:00,51.3,49.3,30.24,NW,304,0.0,0.0,93,0.00,,,0.00,0.00,VWS V14.01,2013-02-03 02:39:00,
2013-02-02 18:44:00,51.3,49.3,30.24,NW,304,0.0,1.0,93,0.00,,,0.00,0.00,VWS V14.01,2013-02-03 02:44:00,
2013-02-02 18:49:00,51.3,49.3,30.24,NW,304,0.0,1.0,93,0.00,,,0.00,0.00,VWS V14.01,2013-02-03 02:49:00,
2013-02-02 18:54:00,51.2,49.2,30.24,NW,304,1.0,1.0,93,0.00,,,0.00,0.00,VWS V14.01,2013-02-03 02:54:00,
2013-02-02 18:59:00,51.2,49.2,30.24,NW,304,0.0,1.0,93,0.00,,,0.00,0.00,VWS V14.01,2013-02-03 02:59:00,
2013-02-02 19:04:00,51.2,49.2,30.24,NW,304,0.0,1.0,93,0.00,,,0.00,0.00,VWS V14.01,2013-02-03 03:04:00,
2013-02-02 19:09:00,51.2,49.2,30.24,NW,304,0.0,1.0,93,0.00,,,0.00,0.00,VWS V14.01,2013-02-03 03:09:00,
2013-02-02 19:14:00,51.2,49.2,30.24,NW,312,1.0,2.0,93,0.00,,,0.00,0.00,VWS V14.01,2013-02-03 03:14:00,
2013-02-02 19:19:00,51.3,49.3,30.24,NW,314,0.0,2.0,93,0.00,,,0.00,0.00,VWS V14.01,2013-02-03 03:19:00,
2013-02-02 19:24:00,51.3,49.3,30.24,West,263,3.0,4.0,93,0.00,,,0.00,0.00,VWS V14.01,2013-02-03 03:24:00,
2013-02-02 19:29:00,51.2,49.2,30.24,NNW,338,0.0,4.0,93,0.00,,,0.00,0.00,VWS V14.01,2013-02-03 03:29:00,
2013-02-02 19:34:00,51.2,49.2,30.24,NNW,338,0.0,1.0,93,0.00,,,0.00,0.00,VWS V14.01,2013-02-03 03:34:00,
2013-02-02 19:39:00,51.2,49.2,30.24,NW,322,0.0,1.0,93,0.00,,,0.00,0.00,VWS V14.01,2013-02-03 03:39:00,
2013-02-02 19:44:00,51.1,49.4,30.24,NW,322,1.0,2.0,94,0.00,,,0.00,0.00,VWS V14.01,2013-02-03 03:44:00,
2013-02-02 19:49:00,51.1,49.4,30.24,West,272,0.0,3.0,94,0.00,,,0.00,0.00,VWS V14.01,2013-02-03 03:49:00,
2013-02-02 19:54:00,51.1,49.4,30.24,West,281,0.0,3.0,94,0.00,,,0.00,0.00,VWS V14.01,2013-02-03 03:54:00,
2013-02-02 19:59:00,51.0,49.3,30.24,NW,309,1.0,5.0,94,0.00,,,0.00,0.00,VWS V14.01,2013-02-03 03:59:00,
2013-02-02 20:04:00,51.1,49.4,30.24,North,351,1.0,4.0,94,0.00,,,0.00,0.00,VWS V14.01,2013-02-03 04:04:00,
2013-02-02 20:09:00,51.1,49.4,30.24,West,274,1.0,4.0,94,0.00,,,0.00,0.00,VWS V14.01,2013-02-03 04:09:00,
2013-02-02 20:14:00,51.0,49.3,30.24,West,281,1.0,3.0,94,0.00,,,0.00,0.00,VWS V14.01,2013-02-03 04:14:00,
2013-02-02 20:19:00,51.0,49.3,30.24,WNW,283,2.0,4.0,94,0.00,,,0.00,0.00,VWS V14.01,2013-02-03 04:19:00,
2013-02-02 20:24:00,51.0,49.3,30.24,West,273,1.0,5.0,94,0.00,,,0.00,0.00,VWS V14.01,2013-02-03 04:24:00,
2013-02-02 20:29:00,51.0,49.3,30.24,WNW,301,0.0,5.0,94,0.00,,,0.00,0.00,VWS V14.01,2013-02-03 04:29:00,
2013-02-02 20:34:00,51.0,49.3,30.25,WNW,302,2.0,4.0,94,0.00,,,0.00,0.00,VWS V14.01,2013-02-03 04:34:00,
2013-02-02 20:39:00,51.0,49.3,30.25,WNW,297,2.0,7.0,94,0.00,,,0.00,0.00,VWS V14.01,2013-02-03 04:39:00,
2013-02-02 20:44:00,51.0,49.3,30.25,West,273,8.0,9.0,94,0.00,,,0.00,0.00,VWS V14.01,2013-02-03 04:44:00,
2013-02-02 20:49:00,51.0,49.3,30.25,WNW,290,8.0,9.0,94,0.00,,,0.00,0.00,VWS V14.01,2013-02-03 04:49:00,
2013-02-02 20:54:00,51.0,49.3,30.25,WNW,297,2.0,7.0,94,0.00,,,0.00,0.00,VWS V14.01,2013-02-03 04:54:00,
2013-02-02 20:59:00,50.9,49.2,30.25,WNW,301,3.0,7.0,94,0.00,,,0.00,0.00,VWS V14.01,2013-02-03 04:59:00,
2013-02-02 21:00:00,50.9,49.2,30.25,NNW,327,1.0,7.0,94,0.00,,,0.00,0.00,VWS V14.01,2013-02-03 05:00:00,
2013-02-02 21:03:00,50.9,49.2,30.25,WNW,293,0.0,6.0,94,0.00,,,0.00,0.00,VWS V14.01,2013-02-03 05:03:00,
2013-02-02 21:04:00,50.9,49.0,30.25,NW,322,1.0,6.0,93,0.00,,,0.00,0.00,VWS V14.01,2013-02-03 05:04:00,
2013-02-02 21:05:00,50.9,49.0,30.25,NW,322,0.0,6.0,93,0.00,,,0.00,0.00,VWS V14.01,2013-02-03 05:05:00,
2013-02-02 21:10:00,50.9,49.0,30.25,West,274,2.0,6.0,93,0.00,,,0.00,0.00,VWS V14.01,2013-02-03 05:10:00,
2013-02-02 21:15:00,50.9,49.0,30.25,NW,310,1.0,6.0,93,0.00,,,0.00,0.00,VWS V14.01,2013-02-03 05:15:00,
2013-02-02 21:20:00,50.9,49.0,30.25,NNW,334,4.0,4.0,93,0.00,,,0.00,0.00,VWS V14.01,2013-02-03 05:20:00,
2013-02-02 21:25:00,50.8,48.8,30.25,WSW,249,0.0,6.0,93,0.00,,,0.00,0.00,VWS V14.01,2013-02-03 05:25:00,
2013-02-02 21:30:00,50.8,48.8,30.25,NW,320,1.0,1.0,93,0.00,,,0.00,0.00,VWS V14.01,2013-02-03 05:30:00,
2013-02-02 21:35:00,50.8,48.8,30.25,WSW,253,1.0,8.0,93,0.00,,,0.00,0.00,VWS V14.01,2013-02-03 05:35:00,
2013-02-02 21:40:00,50.8,48.8,30.26,NNW,329,1.0,1.0,93,0.00,,,0.00,0.00,VWS V14.01,2013-02-03 05:40:00,
2013-02-02 21:45:00,50.8,48.8,30.26,WNW,283,5.0,7.0,93,0.00,,,0.00,0.00,VWS V14.01,2013-02-03 05:45:00,
2013-02-02 21:50:00,50.7,48.8,30.25,WSW,257,5.0,5.0,93,0.00,,,0.00,0.00,VWS V14.01,2013-02-03 05:50:00,
2013-02-02 21:55:00,50.8,48.8,30.26,West,275,1.0,10.0,93,0.00,,,0.00,0.00,VWS V14.01,2013-02-03 05:55:00,
2013-02-02 22:00:00,50.7,48.8,30.26,WNW,297,1.0,1.0,93,0.00,,,0.00,0.00,VWS V14.01,2013-02-03 06:00:00,
2013-02-02 22:05:00,50.8,48.8,30.26,West,260,5.0,6.0,93,0.00,,,0.00,0.00,VWS V14.01,2013-02-03 06:05:00,
2013-02-02 22:10:00,50.8,48.8,30.26,West,281,1.0,1.0,93,0.00,,,0.00,0.00,VWS V14.01,2013-02-03 06:10:00,
2013-02-02 22:15:00,50.8,48.6,30.25,West,274,3.0,4.0,92,0.00,,,0.00,0.00,VWS V14.01,2013-02-03 06:15:00,
2013-02-02 22:20:00,50.8,48.6,30.25,West,264,3.0,3.0,92,0.00,,,0.00,0.00,VWS V14.01,2013-02-03 06:20:00,
2013-02-02 22:25:00,50.6,48.4,30.25,West,279,0.0,4.0,92,0.00,,,0.00,0.00,VWS V14.01,2013-02-03 06:25:00,
2013-02-02 22:30:00,50.6,48.7,30.26,West,260,1.0,1.0,93,0.00,,,0.00,0.00,VWS V14.01,2013-02-03 06:30:00,
2013-02-02 22:35:00,50.6,48.4,30.26,WNW,286,2.0,5.0,92,0.00,,,0.00,0.00,VWS V14.01,2013-02-03 06:35:00,
2013-02-02 22:40:00,50.5,48.3,30.26,West,281,0.0,0.0,92,0.00,,,0.00,0.00,VWS V14.01,2013-02-03 06:40:00,
2013-02-02 22:45:00,50.4,48.2,30.26,WSW,237,0.0,1.0,92,0.00,,,0.00,0.00,VWS V14.01,2013-02-03 06:45:00,
2013-02-02 22:50:00,50.3,48.1,30.26,WNW,295,2.0,3.0,92,0.00,,,0.00,0.00,VWS V14.01,2013-02-03 06:50:00,
2013-02-02 22:55:00,50.3,48.1,30.26,WNW,285,2.0,3.0,92,0.00,,,0.00,0.00,VWS V14.01,2013-02-03 06:55:00,
2013-02-02 23:00:00,50.3,48.1,30.26,West,278,1.0,1.0,92,0.00,,,0.00,0.00,VWS V14.01,2013-02-03 07:00:00,
2013-02-02 23:05:00,50.3,48.1,30.26,WSW,243,2.0,5.0,92,0.00,,,0.00,0.00,VWS V14.01,2013-02-03 07:05:00,
2013-02-02 23:10:00,50.3,48.1,30.26,WSW,256,3.0,4.0,92,0.00,,,0.00,0.00,VWS V14.01,2013-02-03 07:10:00,
2013-02-02 23:15:00,50.3,48.1,30.26,WNW,295,1.0,6.0,92,0.00,,,0.00,0.00,VWS V14.01,2013-02-03 07:15:00,
2013-02-02 23:20:00,50.2,48.0,30.26,SW,221,1.0,2.0,92,0.00,,,0.00,0.00,VWS V14.01,2013-02-03 07:20:00,
2013-02-02 23:25:00,50.2,48.0,30.26,West,277,4.0,5.0,92,0.00,,,0.00,0.00,VWS V14.01,2013-02-03 07:25:00,
2013-02-02 23:30:00,50.2,48.0,30.26,WSW,241,1.0,3.0,92,0.00,,,0.00,0.00,VWS V14.01,2013-02-03 07:30:00,
2013-02-02 23:35:00,50.3,48.1,30.26,West,274,1.0,3.0,92,0.00,,,0.00,0.00,VWS V14.01,2013-02-03 07:35:00,
2013-02-02 23:40:00,50.3,48.1,30.26,WNW,300,2.0,2.0,92,0.00,,,0.00,0.00,VWS V14.01,2013-02-03 07:40:00,
2013-02-02 23:45:00,50.4,48.2,30.26,West,262,4.0,4.0,92,0.00,,,0.00,0.00,VWS V14.01,2013-02-03 07:45:00,
2013-02-02 23:50:00,50.4,48.2,30.26,West,276,2.0,5.0,92,0.00,,,0.00,0.00,VWS V14.01,2013-02-03 07:50:00,
2013-02-02 23:55:00,50.5,48.3,30.26,West,274,1.0,5.0,92,0.00,,,0.00,0.00,VWS V14.01,2013-02-03 07:55:00,